Flag for U.S.A. Weather past 2 weeks in Breckenridge, Colorado, U.S.A.

Now
54 °F

Clear.


Feels Like: 50 °F
Forecast: 58 / 70 °F
Wind: 10 mph from South

Location: Copper Mountain - Red Cliff Pass

Current Time: Jul 5, 2015 at 1:48:11 AM

Latest Report: Jul 5, 2015 at 1:15 AM


Visibility: 10 mi

Pressure: 30.59 "Hg (21.56 "Hg at 2921m altitude)

Humidity: 54%

Dew point: 37 °F

Location of BreckenridgeLocation

Historic Weather in Breckenridge — Graph

°F

Breckenridge temperature yesterday

Maximum temperature yesterday: 66 °F (at 5:15 PM)
Minimum temperature yesterday: 50 °F (at 2:35 AM)
Average temperature yesterday: 58 °F

Past Weeks' High & Low Weather Summary

 TemperatureHumidityPressure
High73 °F (Jun 30, 4:55 PM)76% (Jun 24, 7:55 PM)30.79 "Hg (Jun 24, 7:55 PM)
Low46 °F (Jun 24, 7:55 PM)4% (Jun 22, 2:15 PM)30.55 "Hg (Jun 20, 1:15 AM)
Average59 °F35%30.67 "Hg
* Reported Jun 20 12:15 AM — Jul 5 12:55 AM, Breckenridge, Weather by CustomWeather, © 2015

Note: Actual official high and low records may vary slightly from our data, if they occured in-between our weather recording intervals... More about our weather records

Advertising

Breckenridge weather history for previous 24 hours

 ConditionsComfort  
Time TempWeatherWind HumidityBarometerVisibility
12:55 AM
Sun, Jul 5
54 °FPassing clouds.14 mph58%30.59 "Hg10 mi
12:35 AM54 °FPassing clouds.14 mph54%30.59 "Hg10 mi
12:15 AM54 °FClear.12 mph54%30.59 "Hg10 mi
11:55 PM
Sat, Jul 4
54 °FClear.12 mph51%30.59 "Hg10 mi
11:35 PM54 °FPassing clouds.12 mph54%30.59 "Hg10 mi
11:15 PM55 °FOvercast.14 mph51%30.60 "Hg10 mi
10:55 PM55 °FOvercast.14 mph51%30.60 "Hg10 mi
10:35 PM55 °FMostly cloudy.13 mph47%30.60 "Hg10 mi
9:35 PM54 °FLight rain. Overcast.12 mph54%30.60 "Hg10 mi
8:55 PM55 °FMostly cloudy.10 mph51%30.59 "Hg10 mi
8:35 PM59 °FPartly sunny.12 mph48%30.59 "Hg10 mi
8:15 PM59 °FScattered clouds.6 mph48%30.58 "Hg10 mi
7:55 PM59 °FScattered clouds.16 mph48%30.57 "Hg10 mi
7:35 PM59 °FThunderstorms. Overcast.7 mph45%30.56 "Hg10 mi
7:15 PM59 °FThundershowers. Mostly cloudy.9 mph45%30.56 "Hg10 mi
6:55 PM61 °FMore clouds than sun.3 mph42%30.56 "Hg10 mi
6:35 PM61 °FBroken clouds.18 mph42%30.55 "Hg10 mi
6:15 PM64 °FBroken clouds.14 mph34%30.56 "Hg10 mi
5:55 PM64 °FSunny.6 mph28%30.56 "Hg10 mi
5:35 PM64 °FSunny.7 mph28%30.56 "Hg10 mi
5:15 PM66 °FSunny.14 mph26%30.57 "Hg10 mi
4:55 PM64 °FThundershowers. Sunny.13 mph30%30.56 "Hg10 mi
4:35 PM64 °FSunny.17 mph30%30.56 "Hg10 mi
4:15 PM64 °FScattered clouds.18 mph32%30.57 "Hg10 mi
3:55 PM63 °FScattered clouds.18 mph39%30.59 "Hg10 mi
3:35 PM61 °FScattered clouds.18 mph42%30.59 "Hg10 mi
3:15 PM63 °FBroken clouds.18 mph37%30.59 "Hg10 mi
2:55 PM61 °FPartly sunny.18 mph39%30.59 "Hg10 mi
2:35 PM61 °FSunny.25 mph39%30.59 "Hg10 mi
2:15 PM64 °FSunny.16 mph30%30.59 "Hg10 mi
1:55 PM64 °FSunny.22 mph30%30.59 "Hg10 mi
1:35 PM64 °FScattered clouds.14 mph30%30.59 "Hg10 mi
1:15 PM64 °FPartly sunny.17 mph30%30.60 "Hg10 mi
12:55 PM64 °FScattered clouds.12 mph28%30.60 "Hg10 mi
12:35 PM64 °FScattered clouds.18 mph30%30.61 "Hg10 mi
12:15 PM64 °FScattered clouds.21 mph34%30.61 "Hg10 mi
11:55 AM61 °FScattered clouds.15 mph39%30.61 "Hg10 mi
11:35 AM61 °FScattered clouds.17 mph42%30.60 "Hg10 mi
11:15 AM61 °FScattered clouds.22 mph42%30.61 "Hg10 mi
10:55 AM61 °FSunny.18 mph42%30.61 "Hg10 mi
10:35 AM61 °FSunny.24 mph42%30.60 "Hg10 mi
10:15 AM59 °FSunny.23 mph45%30.59 "Hg10 mi
9:55 AM59 °FScattered clouds.28 mph45%30.60 "Hg10 mi
9:35 AM59 °FSunny.23 mph48%30.61 "Hg10 mi
9:15 AM59 °FSunny.16 mph51%30.61 "Hg10 mi
8:55 AM59 °FSunny.15 mph51%30.61 "Hg10 mi
8:35 AM55 °FSunny.13 mph55%30.61 "Hg10 mi
8:15 AM55 °FSunny.10 mph55%30.60 "Hg10 mi
7:55 AM55 °FSunny.15 mph51%30.59 "Hg10 mi
6:25 AM54 °FClear.9 mph51%30.59 "Hg10 mi
6:15 AM54 °FPassing clouds.9 mph54%30.59 "Hg10 mi
5:55 AM54 °FPassing clouds.6 mph54%30.59 "Hg10 mi
5:35 AM54 °FPassing clouds.15 mph54%30.59 "Hg10 mi
5:15 AM54 °FClear.17 mph58%30.59 "Hg10 mi
4:55 AM52 °FClear.16 mph62%30.59 "Hg10 mi
4:35 AM54 °FClear.14 mph63%30.58 "Hg10 mi
4:15 AM52 °FClear.14 mph67%30.58 "Hg10 mi
3:55 AM52 °FClear.21 mph67%30.58 "Hg10 mi
3:35 AM52 °FClear.22 mph67%30.57 "Hg10 mi
3:15 AM52 °FClear.24 mph67%30.57 "Hg10 mi
2:55 AM52 °FClear.23 mph72%30.58 "Hg10 mi
2:35 AM50 °FClear.24 mph71%30.59 "Hg10 mi
2:15 AM52 °FClear.24 mph67%30.59 "Hg10 mi
1:55 AM54 °FClear.16 mph63%30.59 "Hg10 mi
1:35 AM54 °FClear.21 mph63%30.59 "Hg10 mi
1:15 AM54 °FClear.16 mph63%30.59 "Hg10 mi
Weather by CustomWeather, © 2015

See weather overviewHow to use our weather pages